Regional Weather Roundup
Issued by NWS

Home | Current Version | Previous Version | Text Only | Print | Product List | Glossary On
Versions: 1 2 3 4 5 6 7 8 9 10 11 12 13 14 15 16 17 18 19 20 21 22 23 24 25 26 27 28 29 30 31 32 33 34 35 36 37 38 39 40 41 42 43 44 45 46 47 48 49 50
000
ASUS43 KLMK 232310
RWRKY
KENTUCKY REGIONAL WEATHER ROUNDUP
NATIONAL WEATHER SERVICE LOUISVILLE KY
700 PM EDT TUE JUL 23 2019

NOTE "FAIR" INDICATES FEW OR NO CLOUDS BELOW 12,000 FEET
WITH NO SIGNIFICANT WEATHER AND/OR OBSTRUCTIONS TO VISIBILITY.

KYZ001>023-026-027-061>063-070>075-240000-
WESTERN AND SOUTH CENTRAL KENTUCKY

CITY           SKY/WX    TMP DP  RH WIND       PRES   REMARKS
PADUCAH        PTSUNNY   81  57  43 N10       30.06F
HENDERSON      FAIR      79  59  50 N5        30.06F
OWENSBORO      FAIR      79  56  45 N10       30.05F
HOPKINSVILLE   FAIR      77  55  46 N15       30.04S
BOWLING GREEN  FAIR      79  55  43 N7        30.03F
GLASGOW        FAIR      78  55  44 N6        30.03S
$$

KYZ024-025-028>034-038-045-046-053-240000-
NORTH CENTRAL KENTUCKY

CITY           SKY/WX    TMP DP  RH WIND       PRES   REMARKS
LOUISVILLE/SDF FAIR      81  52  36 N9        30.02F
LOUISVILLE/LOU FAIR      80  52  37 N10       30.02F
FORT KNOX      FAIR      77  56  47 N6        30.04S
$$

KYZ035>037-039>044-047>052-055>060-089>105-240000-
NORTHEAST KENTUCKY

CITY           SKY/WX    TMP DP  RH WIND       PRES   REMARKS
LEXINGTON      FAIR      79  52  38 N8        30.03S
COVINGTON      FAIR      78  52  40 N13       30.02F
FRANKFORT      PTSUNNY   80  54  40 N7        30.02S
$$

KYZ054-064>069-076>088-106>120-240000-
SOUTHEAST KENTUCKY

CITY           SKY/WX    TMP DP  RH WIND       PRES   REMARKS
JACKSON        PTSUNNY   73  55  53 VRB6      30.03R
LONDON         PTSUNNY   75  55  49 N10       30.02S
SOMERSET       FAIR      73  52  46 N8        30.04R
MIDDLESBORO    FAIR      76  57  51 N10G17    30.01R
MONTICELLO     FAIR      76  56  49 N17       30.05R
$$




USA.gov is the U.S. government's official web portal to all federal, state and local government web resources and services.